SCP
-0 -0 -0 -0 -0 -0 -0 -0 -0 -0 -0 -0 -0 -0 -0 -0 -0 -0 -0 -0 -0 -0 -0 -0 0 0 0 0 0 0 0 0 0 -0 -0 -0 -0 -0 -0 -0 0 -0 0
-0 0 -0 -0 -0 -0 -0 -0 -0 -0 -0 -0 -0 -0 -0 -0 0 -0 -0 -0 -0 -0 0 0 0 0 0 0 0 0 0 0 0 0 0 -0 -0 -0 0 0 0 0 0
-0 0 0 -0 -0 -0 -0 -0 -0 -0 -0 -0 -0 -0 -0 -0 0 0 0 -0 0 -0 -0 0 0 0 0 0 -0 -0 0 -0 -0 0 -0 -0 -0 -0 0 0 0 0 0
-0 0 0 -0 -0 -0 -0 -0 -0 -0 -0 -0 -0 -0 -0 -0 -0 0 -0 0 -0 -0 -0 -0 0 0 -0 -0 -0 -0 -0 -0 -0 -0 -0 -0 -0 0 0 0 0 0 0
0 0 0 -0 -0 -0 -0 -0 -0 -0 -0 -0 -0 -0 -0 -0 -0 0 -0 -0 -0 -0 -0 0 0 0 -0 -0 -0 -0 -0 -0 -0 -0 -0 -0 -0 0 0 0 0 0 0
0 0 -0 -0 -0 -0 -0 -0 -0 -0 -0 0 -0 0 -0 -0 -0 -0 -0 0 0 -0 0 0 0 0 0 0 -0 -0 -0 -0 0 -0 -0 -0 -0 0 0 0 0 0 0
0 0 0 -0 -0 -0 -0 -0 0 0 0 -0 0 0 -0 -0 0 -0 -0 -0 -0 0 0 0 0 0 0 0 0 0 0 0 -0 -0 -0 -0 -0 0 0 0 0 0 0
0 0 0 0 0 -0 -0 -0 0 0 0 0 0 0 0 0 0 0 -0 -0 -0 -0 -0 0 0 0 0 -0 0 0 0 0 0 -0 -0 -0 -0 0 0 0 0 0 0
0 0 0 0 0 0 -0 -0 0 0 0 0 0 0 0 0 0 0 0 -0 -0 0 0 0 0 0 -0 -0 -0 -0 -0 0 0 -0 -0 0 -0 0 0 0 0 0 0
-0 -0 0 0 0 0 0 0 0 -0 0 0 0 0 0 0 0 0 0 -0 0 0 0 0 0 -0 -0 -0 -0 -0 -0 -0 -0 -0 -0 0 -0 0 0 0 0 0 0
-0 -0 -0 -0 0 0 0 -0 0 0 0 0 0 0 0 0 0 0 0 -0 0 0 0 0 0 -0 -0 -0 -0 -0 -0 -0 -0 -0 -0 -0 -0 0 0 0 0 0 0
-0 -0 -0 -0 -0 -0 0 0 -0 0 0 0 0 0 0 0 0 0 0 0 0 0 0 0 0 -0 -0 -0 -0 -0 -0 -0 -0 -0 0 -0 -0 0 0 0 0 0 0
-0 0 -0 -0 -0 -0 0 0 0 0 0 0 0 0 0 0 0 0 0 0 0 0 0 0 0 0 0 0 0 0 -0 -0 0 0 0 -0 0 0 0 0 0 0 0
0 0 0 0 0 0 0 0 0 0 0 0 0 0 0 0 0 0 0 0 0 0 0 0 0 0 0 0 0 0 0 0 0 0 0 0 0 0 0 0 0 0 0
0 0 0 0 0 0 0 0 0 0 0 0 0 0 0 0 0 0 0 0 0 0 0 0 0 0 0 0 0 0 0 0 0 0 0 0 0 0 0 0 0 0 0
0 0 0 0 0 0 0 0 0 0 0 0 0 0 0 0 0 0 0 0 0 0 0 0 0 0 0 0 0 0 0 0 0 0 0 0 0 0 0 0 0 0 0
0 0 0 0 0 0 0 0 0 0 0 0 0 0 0 0 0 0 0 0 0 0 0 0 0 0 0 0 0 0 0 0 0 0 0 0 0 0 0 0 0 0 0
0 0 0 0 0 0 0 0 0 0 0 0 0 0 0 0 0 0 0 0 0 0 0 0 0 0 0 0 0 0 0 0 0 0 0 0 0 0 0 0 0 0 0
0 0 0 0 0 0 0 0 0 0 0 0 0 0 0 0 0 0 0 0 0 0 0 0 0 0 0 0 0 0 0 0 0 0 0 0 0 0 0 0 0 0 0
0 0 0 0 0 0 0 0 0 0 0 0 0 0 0 0 0 0 0 0 0 0 0 0 0 0 0 0 0 0 0 0 0 0 0 0 0 0 0 0 0 0 0
0 0 0 0 0 0 0 0 0 0 0 0 0 0 0 0 0 0 0 0 0 0 0 0 0 0 0 0 0 0 0 0 0 0 0 0 0 0 0 0 0 0 0
0 0 0 0 0 0 0 0 0 0 0 0 0 0 0 0 0 0 0 0 0 0 0 0 0 0 0 0 0 0 0 0 0 0 0 0 0 0 0 0 0 0 0
0 0 0 0 0 0 0 0 0 0 0 0 0 0 0 0 0 0 0 0 0 0 0 0 0 0 0 0 0 0 0 0 0 0 0 0 0 0 0 0 0 0 0
0 0 0 0 0 0 0 0 0 0 0 0 0 0 0 0 0 0 0 0 0 0 0 0 0 0 0 0 0 0 0 0 0 0 0 0 0 0 0 0 0 0 0
0 0 0 0 0 0 0 0 0 0 0 0 0 0 0 0 0 0 0 0 0 0 0 0 0 0 0 0 0 0 0 0 0 0 0 0 0 0 0 0 0 0 0
0 0 0 0 0 0 0 0 0 0 0 0 0 0 0 0 0 0 0 0 0 0 0 0 0 0 0 0 0 0 0 0 0 0 0 0 0 0 0 0 0 0 0
Wind_Speed_500mb
37 32 28 28 27 28 30 27 24 26 26 27 29 28 22 16 11 7 10 22 27 25 26 25 30 28 34 34 31 29 25 23 23 23 24 25 22 20 17 20 24 27 31
43 36 31 27 26 24 25 24 23 23 24 24 22 19 17 12 5 6 18 27 25 26 26 26 28 33 33 30 25 20 19 20 23 24 19 20 21 21 21 20 23 28 29
42 39 35 30 28 25 23 23 21 21 21 20 20 20 18 12 7 8 21 21 22 25 27 29 32 31 30 26 20 20 25 23 22 25 29 27 24 24 24 25 25 27 29
40 39 36 31 28 26 24 23 23 20 17 15 13 15 17 14 8 18 16 19 20 23 26 28 28 27 26 21 17 17 20 21 23 25 26 27 25 26 27 26 25 25 27
40 37 34 30 27 25 23 22 24 24 20 14 13 10 24 20 16 14 14 19 16 18 22 23 23 24 21 17 12 11 12 14 17 20 21 20 23 25 26 25 24 24 25
38 34 32 28 26 24 22 20 22 24 23 21 15 10 15 23 15 15 14 16 18 18 19 19 19 19 17 15 10 8 9 12 14 16 20 21 21 22 24 25 24 23 23
39 35 31 29 26 24 21 19 17 18 20 21 18 15 16 18 19 16 14 14 15 16 19 19 18 17 14 11 8 5 7 9 11 13 17 19 19 18 21 22 22 22 20
39 36 30 29 24 22 20 18 15 12 17 20 17 16 14 14 16 17 12 12 15 14 15 16 15 14 12 9 5 3 4 7 9 10 11 14 16 17 18 19 20 19 19
39 37 32 29 26 24 21 18 16 12 12 14 13 13 14 12 11 12 11 10 9 11 10 10 11 9 9 7 4 3 3 4 6 8 10 11 12 14 16 17 17 17 16
39 36 34 32 29 26 24 22 19 16 13 11 9 9 16 13 12 12 10 9 6 6 8 9 10 10 9 9 7 6 8 8 9 9 8 9 10 11 12 13 15 15 15
36 35 37 35 32 28 26 25 25 23 20 17 15 12 13 14 13 14 13 13 10 8 6 7 9 11 11 11 11 12 12 13 13 14 11 10 11 11 12 14 14 15 16
45 38 32 39 37 33 30 28 27 27 26 24 21 18 15 15 15 14 14 16 14 11 9 8 9 11 13 15 16 17 16 17 16 16 15 15 14 14 15 15 16 17 17
38 36 35 36 39 38 34 31 30 29 27 27 25 23 21 21 21 22 21 19 18 16 14 15 15 15 15 18 20 21 20 19 19 18 18 19 19 19 19 20 20 20 21
43 34 32 33 40 39 36 36 32 32 30 29 27 27 27 26 25 24 24 23 22 20 21 22 21 21 21 21 20 21 21 21 22 23 23 25 26 26 26 26 27 26 26
45 40 37 33 34 35 37 36 36 34 32 28 30 29 30 30 28 26 24 24 23 24 23 25 25 24 25 25 26 25 25 25 26 27 27 28 30 30 31 31 32 32 32
46 44 38 36 34 36 36 34 35 35 35 35 33 33 32 31 29 30 27 27 26 25 23 25 26 27 27 28 28 29 29 29 30 31 32 33 33 33 34 34 35 35 36
47 43 43 38 37 40 41 38 36 35 36 37 38 36 39 37 34 34 32 31 28 28 28 29 29 31 30 29 30 29 31 32 34 35 35 36 35 35 35 35 35 36 38
48 46 41 41 41 40 41 40 40 38 39 40 39 37 36 37 36 34 34 34 29 31 34 35 33 34 34 33 34 33 34 36 37 38 38 38 36 36 36 36 38 39 39
47 44 44 45 45 41 39 37 36 37 40 42 43 41 42 42 39 39 38 36 33 35 37 38 38 39 38 37 39 39 40 42 42 43 43 42 41 39 38 37 38 39 38
52 49 46 47 46 44 42 39 38 39 41 41 41 43 42 43 42 46 46 45 42 45 44 42 42 41 44 41 44 47 46 46 47 46 45 43 41 35 33 31 27 21 21
66 65 62 57 49 48 47 47 47 45 44 43 40 36 37 39 41 42 47 46 46 46 44 47 49 48 48 44 48 53 52 46 43 36 33 24 20 19 19 21 21 27 28
70 72 73 69 60 56 55 49 48 41 42 40 38 37 37 39 41 45 46 46 45 44 43 44 47 51 54 48 47 48 52 54 41 20 39 34 24 23 25 29 33 39 35
75 72 74 76 68 63 60 55 57 57 52 46 45 44 41 42 43 43 51 48 46 46 47 45 45 46 52 53 49 45 22 21 49 50 46 51 42 42 42 35 32 36 39
56 62 66 72 69 69 67 65 61 59 57 50 49 50 47 42 40 40 41 41 45 47 48 46 47 47 46 50 51 52 55 56 55 49 59 58 55 52 43 36 40 38 38
56 51 52 60 63 66 66 64 62 63 59 56 53 51 51 45 43 44 43 43 46 45 48 44 47 45 47 51 55 57 59 61 57 62 46 63 60 55 52 40 39 42 35
66 63 59 58 57 62 63 62 62 61 60 61 59 57 55 56 52 49 47 46 43 38 47 43 42 49 50 49 50 49 53 45 48 51 50 50 48 36 31 38 38 29 30
Wind_Direction_500mb
162 161 153 152 148 144 135 137 133 134 139 134 129 129 126 137 119 76 82 105 103 101 100 98 111 108 114 116 110 104 102 89 76 76 68 74 75 74 57 40 31 33 37
155 160 156 159 157 151 152 149 143 143 145 147 155 155 160 164 142 78 108 111 107 108 101 106 113 119 118 116 112 107 98 83 73 66 65 56 52 52 49 41 35 40 44
160 160 161 161 159 160 163 169 162 153 149 154 160 166 182 184 164 153 112 104 107 104 104 109 117 121 120 117 110 89 87 85 71 65 64 61 53 49 47 45 42 44 47
165 162 164 165 164 164 165 170 175 176 172 164 158 168 166 163 144 133 121 126 112 111 112 119 122 125 125 119 104 87 81 83 73 62 52 48 46 47 46 45 45 46 47
170 165 166 169 168 169 168 172 179 183 188 187 178 157 164 165 163 145 133 114 106 119 116 119 125 132 128 124 109 85 69 60 60 50 43 47 47 44 43 45 44 46 47
174 169 170 171 173 171 164 163 163 166 179 187 186 187 167 168 169 150 151 138 138 126 127 124 125 130 133 135 119 88 81 71 56 50 50 47 43 40 34 38 39 40 43
176 174 174 174 174 172 167 161 162 166 176 178 183 177 166 156 170 171 159 154 145 147 140 145 147 143 142 142 127 91 61 62 51 44 47 49 41 37 29 30 34 35 36
182 179 179 174 174 175 174 171 173 174 179 170 173 173 166 165 167 171 177 172 169 163 164 164 158 159 161 158 147 116 33 28 35 38 42 45 38 30 25 22 24 25 27
190 189 185 183 179 180 184 185 186 186 175 168 173 179 185 182 182 188 188 192 184 182 186 185 188 180 172 178 195 251 286 318 353 14 20 20 25 21 15 13 10 12 13
193 196 195 193 191 190 191 192 196 198 198 193 198 189 193 189 195 206 210 206 212 195 206 211 214 222 208 209 223 251 279 292 305 327 350 350 352 358 356 355 352 352 355
199 203 205 203 203 200 199 202 199 203 208 211 221 220 211 199 202 213 219 223 225 221 219 230 232 235 239 243 247 253 265 279 290 298 309 318 321 326 327 331 330 329 331
204 206 209 212 209 210 208 209 211 210 212 217 224 233 231 222 223 227 233 228 230 236 243 248 249 247 249 254 257 262 265 270 280 287 290 297 300 301 304 306 310 310 309
201 212 215 216 216 217 218 217 218 219 219 226 230 235 238 237 237 242 242 243 242 240 250 259 262 266 265 263 264 266 268 270 276 281 283 287 293 291 293 293 295 297 294
212 215 217 219 219 221 221 225 224 225 224 226 231 237 240 244 246 249 249 247 250 257 261 268 272 270 270 270 274 273 274 273 278 279 282 285 287 287 286 286 287 287 287
216 217 217 219 219 223 226 226 226 227 229 231 235 237 241 244 248 253 251 253 255 260 270 273 273 273 274 274 273 277 279 282 284 287 287 287 288 288 288 285 283 283 283
218 220 218 223 226 228 230 230 233 235 235 234 236 237 242 244 246 250 253 256 260 267 273 274 272 273 273 275 278 281 283 284 287 289 290 290 289 288 286 285 283 282 281
219 221 224 226 231 232 236 238 239 242 242 242 242 243 245 245 247 252 256 258 263 270 274 276 276 277 279 282 283 284 285 286 287 291 292 290 287 286 286 286 286 285 283
226 224 224 228 230 234 237 241 244 248 252 254 248 246 247 248 247 249 255 261 267 268 269 271 276 277 281 285 290 293 292 290 290 290 289 291 292 293 291 291 290 288 284
230 229 230 230 235 237 240 241 245 249 252 255 257 259 254 254 257 249 252 256 260 265 268 271 274 278 282 287 291 289 287 288 289 289 291 294 294 293 293 290 287 287 289
232 233 234 236 238 239 239 239 242 247 248 247 249 255 260 255 258 257 261 264 266 265 267 270 276 278 282 285 286 286 286 286 287 291 296 293 289 288 290 295 295 297 299
234 233 234 235 234 236 236 237 239 247 249 248 251 260 263 258 256 253 259 262 264 269 270 272 275 277 278 282 289 291 294 297 298 301 302 328 317 301 292 299 295 306 303
238 239 236 236 235 235 236 244 253 263 258 255 258 262 261 259 255 252 256 262 270 274 274 275 276 278 277 277 278 288 299 304 310 314 308 315 322 307 297 298 293 302 300
241 241 241 238 236 238 240 243 245 247 250 253 256 258 260 263 260 253 258 262 266 270 274 276 275 277 280 277 273 268 273 276 299 304 303 306 308 308 312 309 315 312 309
238 237 239 237 236 238 240 243 245 249 254 266 273 274 269 267 264 258 255 254 261 264 266 272 278 278 277 273 273 272 270 269 275 291 295 298 299 300 302 301 296 298 300
238 234 228 229 231 235 238 241 243 244 252 263 267 266 259 257 253 247 241 244 249 255 267 269 269 273 274 274 269 268 274 277 273 274 275 286 293 295 301 296 296 298 294
238 234 234 232 233 235 234 237 239 244 253 259 265 268 255 251 253 252 248 249 247 259 267 268 272 271 271 269 285 266 282 271 283 281 277 287 288 298 294 301 300 299 305
Wind_Speed_850mb
37 32 28 28 27 28 30 27 24 26 26 27 29 28 22 16 11 7 10 22 27 25 26 25 30 28 34 34 31 29 25 23 23 23 24 25 22 20 17 20 24 27 31
43 36 31 27 26 24 25 24 23 23 24 24 22 19 17 12 5 6 18 27 25 26 26 26 28 33 33 30 25 20 19 20 23 24 19 20 21 21 21 20 23 28 29
42 39 35 30 28 25 23 23 21 21 21 20 20 20 18 12 7 8 21 21 22 25 27 29 32 31 30 26 20 20 25 23 22 25 29 27 24 24 24 25 25 27 29
40 39 36 31 28 26 24 23 23 20 17 15 13 15 17 14 8 18 16 19 20 23 26 28 28 27 26 21 17 17 20 21 23 25 26 27 25 26 27 26 25 25 27
40 37 34 30 27 25 23 22 24 24 20 14 13 10 24 20 16 14 14 19 16 18 22 23 23 24 21 17 12 11 12 14 17 20 21 20 23 25 26 25 24 24 25
38 34 32 28 26 24 22 20 22 24 23 21 15 10 15 23 15 15 14 16 18 18 19 19 19 19 17 15 10 8 9 12 14 16 20 21 21 22 24 25 24 23 23
39 35 31 29 26 24 21 19 17 18 20 21 18 15 16 18 19 16 14 14 15 16 19 19 18 17 14 11 8 5 7 9 11 13 17 19 19 18 21 22 22 22 20
39 36 30 29 24 22 20 18 15 12 17 20 17 16 14 14 16 17 12 12 15 14 15 16 15 14 12 9 5 3 4 7 9 10 11 14 16 17 18 19 20 19 19
39 37 32 29 26 24 21 18 16 12 12 14 13 13 14 12 11 12 11 10 9 11 10 10 11 9 9 7 4 3 3 4 6 8 10 11 12 14 16 17 17 17 16
39 36 34 32 29 26 24 22 19 16 13 11 9 9 16 13 12 12 10 9 6 6 8 9 10 10 9 9 7 6 8 8 9 9 8 9 10 11 12 13 15 15 15
36 35 37 35 32 28 26 25 25 23 20 17 15 12 13 14 13 14 13 13 10 8 6 7 9 11 11 11 11 12 12 13 13 14 11 10 11 11 12 14 14 15 16
45 38 32 39 37 33 30 28 27 27 26 24 21 18 15 15 15 14 14 16 14 11 9 8 9 11 13 15 16 17 16 17 16 16 15 15 14 14 15 15 16 17 17
38 36 35 36 39 38 34 31 30 29 27 27 25 23 21 21 21 22 21 19 18 16 14 15 15 15 15 18 20 21 20 19 19 18 18 19 19 19 19 20 20 20 21
43 34 32 33 40 39 36 36 32 32 30 29 27 27 27 26 25 24 24 23 22 20 21 22 21 21 21 21 20 21 21 21 22 23 23 25 26 26 26 26 27 26 26
45 40 37 33 34 35 37 36 36 34 32 28 30 29 30 30 28 26 24 24 23 24 23 25 25 24 25 25 26 25 25 25 26 27 27 28 30 30 31 31 32 32 32
46 44 38 36 34 36 36 34 35 35 35 35 33 33 32 31 29 30 27 27 26 25 23 25 26 27 27 28 28 29 29 29 30 31 32 33 33 33 34 34 35 35 36
47 43 43 38 37 40 41 38 36 35 36 37 38 36 39 37 34 34 32 31 28 28 28 29 29 31 30 29 30 29 31 32 34 35 35 36 35 35 35 35 35 36 38
48 46 41 41 41 40 41 40 40 38 39 40 39 37 36 37 36 34 34 34 29 31 34 35 33 34 34 33 34 33 34 36 37 38 38 38 36 36 36 36 38 39 39
47 44 44 45 45 41 39 37 36 37 40 42 43 41 42 42 39 39 38 36 33 35 37 38 38 39 38 37 39 39 40 42 42 43 43 42 41 39 38 37 38 39 38
52 49 46 47 46 44 42 39 38 39 41 41 41 43 42 43 42 46 46 45 42 45 44 42 42 41 44 41 44 47 46 46 47 46 45 43 41 35 33 31 27 21 21
66 65 62 57 49 48 47 47 47 45 44 43 40 36 37 39 41 42 47 46 46 46 44 47 49 48 48 44 48 53 52 46 43 36 33 24 20 19 19 21 21 27 28
70 72 73 69 60 56 55 49 48 41 42 40 38 37 37 39 41 45 46 46 45 44 43 44 47 51 54 48 47 48 52 54 41 20 39 34 24 23 25 29 33 39 35
75 72 74 76 68 63 60 55 57 57 52 46 45 44 41 42 43 43 51 48 46 46 47 45 45 46 52 53 49 45 22 21 49 50 46 51 42 42 42 35 32 36 39
56 62 66 72 69 69 67 65 61 59 57 50 49 50 47 42 40 40 41 41 45 47 48 46 47 47 46 50 51 52 55 56 55 49 59 58 55 52 43 36 40 38 38
56 51 52 60 63 66 66 64 62 63 59 56 53 51 51 45 43 44 43 43 46 45 48 44 47 45 47 51 55 57 59 61 57 62 46 63 60 55 52 40 39 42 35
66 63 59 58 57 62 63 62 62 61 60 61 59 57 55 56 52 49 47 46 43 38 47 43 42 49 50 49 50 49 53 45 48 51 50 50 48 36 31 38 38 29 30
Wind_Direction_850mb
162 161 153 152 148 144 135 137 133 134 139 134 129 129 126 137 119 76 82 105 103 101 100 98 111 108 114 116 110 104 102 89 76 76 68 74 75 74 57 40 31 33 37
155 160 156 159 157 151 152 149 143 143 145 147 155 155 160 164 142 78 108 111 107 108 101 106 113 119 118 116 112 107 98 83 73 66 65 56 52 52 49 41 35 40 44
160 160 161 161 159 160 163 169 162 153 149 154 160 166 182 184 164 153 112 104 107 104 104 109 117 121 120 117 110 89 87 85 71 65 64 61 53 49 47 45 42 44 47
165 162 164 165 164 164 165 170 175 176 172 164 158 168 166 163 144 133 121 126 112 111 112 119 122 125 125 119 104 87 81 83 73 62 52 48 46 47 46 45 45 46 47
170 165 166 169 168 169 168 172 179 183 188 187 178 157 164 165 163 145 133 114 106 119 116 119 125 132 128 124 109 85 69 60 60 50 43 47 47 44 43 45 44 46 47
174 169 170 171 173 171 164 163 163 166 179 187 186 187 167 168 169 150 151 138 138 126 127 124 125 130 133 135 119 88 81 71 56 50 50 47 43 40 34 38 39 40 43
176 174 174 174 174 172 167 161 162 166 176 178 183 177 166 156 170 171 159 154 145 147 140 145 147 143 142 142 127 91 61 62 51 44 47 49 41 37 29 30 34 35 36
182 179 179 174 174 175 174 171 173 174 179 170 173 173 166 165 167 171 177 172 169 163 164 164 158 159 161 158 147 116 33 28 35 38 42 45 38 30 25 22 24 25 27
190 189 185 183 179 180 184 185 186 186 175 168 173 179 185 182 182 188 188 192 184 182 186 185 188 180 172 178 195 251 286 318 353 14 20 20 25 21 15 13 10 12 13
193 196 195 193 191 190 191 192 196 198 198 193 198 189 193 189 195 206 210 206 212 195 206 211 214 222 208 209 223 251 279 292 305 327 350 350 352 358 356 355 352 352 355
199 203 205 203 203 200 199 202 199 203 208 211 221 220 211 199 202 213 219 223 225 221 219 230 232 235 239 243 247 253 265 279 290 298 309 318 321 326 327 331 330 329 331
204 206 209 212 209 210 208 209 211 210 212 217 224 233 231 222 223 227 233 228 230 236 243 248 249 247 249 254 257 262 265 270 280 287 290 297 300 301 304 306 310 310 309
201 212 215 216 216 217 218 217 218 219 219 226 230 235 238 237 237 242 242 243 242 240 250 259 262 266 265 263 264 266 268 270 276 281 283 287 293 291 293 293 295 297 294
212 215 217 219 219 221 221 225 224 225 224 226 231 237 240 244 246 249 249 247 250 257 261 268 272 270 270 270 274 273 274 273 278 279 282 285 287 287 286 286 287 287 287
216 217 217 219 219 223 226 226 226 227 229 231 235 237 241 244 248 253 251 253 255 260 270 273 273 273 274 274 273 277 279 282 284 287 287 287 288 288 288 285 283 283 283
218 220 218 223 226 228 230 230 233 235 235 234 236 237 242 244 246 250 253 256 260 267 273 274 272 273 273 275 278 281 283 284 287 289 290 290 289 288 286 285 283 282 281
219 221 224 226 231 232 236 238 239 242 242 242 242 243 245 245 247 252 256 258 263 270 274 276 276 277 279 282 283 284 285 286 287 291 292 290 287 286 286 286 286 285 283
226 224 224 228 230 234 237 241 244 248 252 254 248 246 247 248 247 249 255 261 267 268 269 271 276 277 281 285 290 293 292 290 290 290 289 291 292 293 291 291 290 288 284
230 229 230 230 235 237 240 241 245 249 252 255 257 259 254 254 257 249 252 256 260 265 268 271 274 278 282 287 291 289 287 288 289 289 291 294 294 293 293 290 287 287 289
232 233 234 236 238 239 239 239 242 247 248 247 249 255 260 255 258 257 261 264 266 265 267 270 276 278 282 285 286 286 286 286 287 291 296 293 289 288 290 295 295 297 299
234 233 234 235 234 236 236 237 239 247 249 248 251 260 263 258 256 253 259 262 264 269 270 272 275 277 278 282 289 291 294 297 298 301 302 328 317 301 292 299 295 306 303
238 239 236 236 235 235 236 244 253 263 258 255 258 262 261 259 255 252 256 262 270 274 274 275 276 278 277 277 278 288 299 304 310 314 308 315 322 307 297 298 293 302 300
241 241 241 238 236 238 240 243 245 247 250 253 256 258 260 263 260 253 258 262 266 270 274 276 275 277 280 277 273 268 273 276 299 304 303 306 308 308 312 309 315 312 309
238 237 239 237 236 238 240 243 245 249 254 266 273 274 269 267 264 258 255 254 261 264 266 272 278 278 277 273 273 272 270 269 275 291 295 298 299 300 302 301 296 298 300
238 234 228 229 231 235 238 241 243 244 252 263 267 266 259 257 253 247 241 244 249 255 267 269 269 273 274 274 269 268 274 277 273 274 275 286 293 295 301 296 296 298 294
238 234 234 232 233 235 234 237 239 244 253 259 265 268 255 251 253 252 248 249 247 259 267 268 272 271 271 269 285 266 282 271 283 281 277 287 288 298 294 301 300 299 305